This demonstration page uses our WeatherBlox Daily Observations layout. Learn more.

Left ArrowRight Arrow

Hourly Observations for April 26, 2015

Temp ( °F °C ) Dew Point ( °F °C ) Humidity (%) Winds ( mph kmh ) Pressure ( in mb ) Visibility ( mi km ) Precip ( " mm )
12:01 am 00:01 Cloudy 48 8.9 45 7.2 89 89 ENE 10 17 29.88 1012 8 13 0.00 0.00
12:49 am 00:49 Cloudy with Mist and Fog 46 8 45 7 93 93 E 10 17 29.91 1013 6 10 0.00 0.00
12:53 am 00:53 Cloudy with Mist and Fog 47 8.3 44 6.7 90 90 ENE 13 20 29.89 1012 6 10 0.00 0.00
1:53 am 01:53 Cloudy 47 8.3 43 6.1 86 86 E 9 15 29.90 1013 8 13 0.00 0.00
2:53 am 02:53 Cloudy 47 8.3 44 6.7 90 90 E 10 17 29.90 1012 7 11 0.00 0.00
3:53 am 03:53 Cloudy 47 8.3 43 6.1 86 86 E 9 15 29.90 1012 7 11 0.00 0.00
4:53 am 04:53 Cloudy 46 7.8 42 5.6 86 86 E 12 19 29.91 1013 10 16 0.00 0.00
5:24 am 05:24 Cloudy 46 8 41 5 82 82 E 14 22 29.94 1014 10 16 0.00 0.00
5:53 am 05:53 Cloudy 46 7.8 41 5 83 83 E 13 20 29.91 1013 10 16 0.00 0.00
6:17 am 06:17 Cloudy 46 7.8 41 5 83 83 E 13 20 29.94 1014 10 16 0.00 0.00
6:53 am 06:53 Cloudy 45 7.2 41 5 86 86 E 9 15 29.94 1014 8 13 0.00 0.00
7:53 am 07:53 Cloudy 45 7.2 41 5 86 86 ENE 10 17 29.98 1015 7 11 0.00 0.00
8:10 am 08:10 Cloudy with Mist and Fog 45 7 41 5 87 87 E 9 15 30.00 1016 6 10 0.00 0.00
8:41 am 08:41 Cloudy 45 7.2 40 4.4 83 83 E 9 15 30.03 1017 7 11 0.00 0.00
8:51 am 08:51 Cloudy 45 7 39 4 81 81 E 12 19 30.03 1017 8 13 0.00 0.00
8:53 am 08:53 Cloudy 45 7.2 39 3.9 80 80 E 13 20 30.00 1016 8 13 0.00 0.00
9:23 am 09:23 Cloudy 46 7.8 40 4.4 79 79 E 10 17 30.03 1017 7 11 0.00 0.00
9:34 am 09:34 Cloudy 46 7.8 41 5 83 83 E 12 19 30.03 1017 7 11 0.00 0.00
9:53 am 09:53 Cloudy 46 7.8 41 5 83 83 E 12 19 30.00 1016 7 11 0.00 0.00
10:05 am 10:05 Cloudy 47 8.3 41 5 80 80 E 15 24 30.03 1017 7 11 0.00 0.00
10:34 am 10:34 Cloudy 48 9 41 5 76 76 ENE 15 24 30.00 1016 8 13 0.00 0.00
10:53 am 10:53 Cloudy 50 10 41 5 71 71 E 18 30 29.99 1016 9 14 0.00 0.00
11:53 am 11:53 Cloudy 52 11.1 43 6.1 72 72 E 20 31 30.00 1016 10 16 0.00 0.00
12:53 pm 12:53 Cloudy 54 12.2 43 6.1 67 67 E 20 31 29.99 1016 10 16 0.00 0.00
1:53 pm 13:53 Cloudy 54 12.2 43 6.1 67 67 E 15 24 29.99 1016 10 16 0.00 0.00
2:43 pm 14:43 Cloudy 55 13 43 6 63 63 E 12 19 30.00 1016 10 16 0.00 0.00
2:53 pm 14:53 Cloudy 55 12.8 43 6.1 64 64 ESE 15 24 29.99 1016 10 16 0.00 0.00
3:53 pm 15:53 Cloudy 56 13.3 43 6.1 62 62 E 10 17 29.97 1015 10 16 0.00 0.00
4:53 pm 16:53 Cloudy 56 13.3 43 6.1 62 62 E 13 20 29.97 1015 10 16 0.00 0.00
5:53 pm 17:53 Cloudy 57 13.9 42 5.6 58 58 E 10 17 29.98 1015 10 16 0.00 0.00
6:53 pm 18:53 Mostly Cloudy 56 13.3 42 5.6 60 60 E 10 17 29.98 1015 10 16 0.00 0.00
7:53 pm 19:53 Partly Cloudy 54 12.2 42 5.6 64 64 E 8 13 30.00 1016 10 16 0.00 0.00
8:53 pm 20:53 Clear 50 10 42 5.6 74 74 E 6 9 30.04 1017 10 16 0.00 0.00
9:53 pm 21:53 Clear 48 8.9 41 5 77 77 ENE 6 9 30.09 1019 10 16 0.00 0.00
10:53 pm 22:53 Clear 44 6.7 39 3.9 83 83 ENE 7 11 30.09 1019 10 16 0.00 0.00
11:53 pm 23:53 Clear 45 7.2 38 3.3 77 77 ENE 8 13 30.09 1019 10 16 0.00 0.00

Powered by AerisWeather